ECMWFFLT1_sfc_temp_132.txt.gz
Temp
89 88 88 88 88 90 90 89 89 90 90 90 90 92 93 93 91 91 90 88 87 86 87 87 86 87 87 87 87 87 88 88 89 89 89 89 89 89 89 91 90 89 92 92 91 91 91 91 91 92 92 91 91 90 89 89 89 90 90 89 90 90 89
87 87 88 89 89 89 91 89 89 91 91 91 90 91 93 93 91 91 89 89 88 87 88 87 87 87 87 87 88 87 87 88 88 88 90 88 88 88 90 90 90 89 88 90 91 91 91 91 91 90 90 90 91 90 91 90 89 89 91 89 90 89 90
83 83 85 88 89 90 90 91 89 91 91 92 93 92 92 90 91 90 89 89 88 88 89 88 87 88 88 88 88 87 88 89 89 89 89 91 90 93 91 90 90 92 92 92 91 92 92 91 90 90 90 91 93 90 90 90 89 90 90 89 89 91 88
81 83 84 86 88 90 90 90 90 92 93 92 93 93 93 90 92 91 91 91 89 89 88 90 90 90 89 88 88 88 88 88 89 91 92 92 92 92 91 91 90 92 92 92 94 93 95 91 91 90 89 90 90 91 91 90 92 91 91 89 90 91 89
84 85 84 84 84 85 88 90 89 91 92 94 94 92 93 93 93 93 93 94 95 91 92 92 94 92 90 90 91 91 90 90 89 91 92 92 91 91 90 92 93 92 92 93 92 90 89 90 91 90 90 89 90 90 90 90 91 90 90 89 89 90 91
84 84 84 83 82 86 87 89 92 92 92 93 94 93 94 95 95 95 95 94 94 95 93 91 92 91 90 92 92 92 91 90 89 89 91 90 90 92 92 91 93 93 94 92 94 93 92 92 92 92 92 93 92 93 93 92 92 92 90 89 89 90 92
83 83 82 83 84 85 86 86 88 91 94 94 93 94 96 96 96 96 96 96 95 93 94 93 93 93 91 92 91 90 90 91 90 90 92 93 91 91 92 92 92 94 94 93 93 93 93 92 92 91 92 93 92 93 91 90 90 91 90 89 88 89 88
82 82 82 83 85 86 87 88 90 94 94 94 92 91 93 96 96 96 95 92 92 92 93 95 94 92 91 91 91 91 91 91 92 91 92 93 93 92 93 93 92 92 92 93 93 93 94 92 94 93 92 92 91 91 92 90 89 92 92 90 88 89 93
83 83 81 84 85 87 87 87 89 92 91 92 91 91 93 93 94 93 95 93 91 90 89 93 93 93 91 91 91 90 92 92 92 92 92 93 94 95 96 95 93 93 92 94 95 94 94 94 95 91 91 91 90 89 90 89 91 91 91 90 88 89 91
81 80 81 83 84 85 84 84 87 88 87 87 89 89 91 92 92 93 91 91 91 89 89 93 91 90 89 89 91 92 92 91 92 94 94 94 94 95 96 97 96 94 94 95 96 95 93 94 94 92 90 90 90 89 89 89 91 91 91 90 90 90 89
79 80 80 80 79 78 78 78 80 81 83 84 85 87 89 89 90 91 88 89 89 89 89 90 90 89 88 88 88 89 91 92 93 93 93 94 96 96 96 97 98 96 95 96 96 96 95 92 93 91 90 93 91 90 89 91 91 90 92 92 92 91 91
76 78 78 79 79 79 77 77 78 78 79 81 83 84 85 86 86 87 87 87 88 88 88 88 89 88 87 88 88 88 89 90 92 93 93 94 96 97 97 97 96 97 97 97 95 95 96 94 94 93 91 91 92 92 91 90 91 90 91 94 94 93 93
76 76 76 78 78 79 79 78 79 79 79 81 80 80 80 83 85 86 86 86 87 88 87 87 87 87 86 88 88 87 88 88 90 91 94 94 94 96 96 97 97 97 97 96 96 96 96 96 94 93 93 92 93 93 92 91 92 90 90 92 93 92 92
75 77 77 77 78 78 79 79 80 80 79 80 81 81 81 82 82 83 84 85 86 87 87 87 86 86 86 87 88 87 87 87 89 90 91 93 92 93 95 96 96 95 96 96 95 96 96 97 97 96 95 94 94 94 94 92 92 91 90 91 93 93 93
74 76 76 77 77 78 79 79 79 79 81 80 80 80 81 81 80 81 82 83 84 86 86 87 86 85 86 86 86 86 87 88 89 89 89 90 90 90 91 93 93 93 94 93 94 97 97 97 97 96 95 95 94 94 95 96 94 94 92 90 90 92 93
74 75 75 76 76 77 77 78 78 78 79 79 80 81 81 81 81 81 80 80 82 83 84 84 84 84 85 85 85 86 87 87 87 87 87 87 88 88 89 91 92 94 93 92 93 93 93 93 94 95 95 93 93 93 95 95 96 91 84 84 91 92 94
76 75 75 75 74 74 75 75 76 76 76 77 78 79 80 80 81 82 83 82 82 81 83 84 83 83 84 84 85 85 85 85 86 85 84 85 86 86 86 87 89 89 89 90 90 90 90 90 91 93 94 95 94 93 95 96 86 72 74 75 76 87 91
75 75 74 73 73 72 73 73 72 72 73 72 71 72 73 74 77 79 79 80 81 81 81 82 82 82 82 82 84 84 84 85 85 84 84 84 85 85 85 85 85 85 85 87 89 88 90 90 90 90 93 94 95 95 95 90 67 65 65 69 71 76 87
76 76 75 73 72 71 72 72 73 73 73 73 74 74 74 77 77 78 79 79 79 79 79 80 81 81 80 80 80 81 82 82 83 83 83 82 83 84 84 84 83 84 84 85 86 88 87 87 89 89 90 92 90 92 92 87 67 63 65 65 66 68 76
78 77 75 74 73 72 72 72 73 73 73 73 76 80 79 78 78 78 78 78 78 77 78 79 80 80 80 79 78 77 77 78 78 78 78 78 80 82 82 80 78 79 79 81 83 84 86 89 87 88 88 89 89 87 85 79 66 61 61 64 63 66 71
78 75 73 72 70 71 71 71 72 72 73 78 79 80 81 79 78 75 72 72 72 74 75 76 76 77 78 79 80 79 79 78 78 78 78 77 77 77 75 74 74 74 73 72 75 81 83 86 87 87 87 89 88 87 84 77 59 60 60 61 62 62 70
78 76 73 73 71 70 70 71 72 72 73 75 77 78 78 79 78 76 73 74 73 72 73 73 74 75 76 77 77 78 79 79 78 77 77 77 76 74 72 74 75 73 72 71 73 78 82 83 85 85 86 86 86 85 82 77 57 58 59 58 62 63 81
78 76 75 73 74 73 74 72 71 72 73 74 75 75 75 78 80 76 74 73 72 71 71 71 71 72 74 73 74 75 76 76 76 75 76 75 74 73 72 72 73 72 73 73 75 76 77 80 81 82 82 82 81 81 79 77 62 56 56 57 57 70 86
79 77 76 75 75 75 75 75 76 75 76 73 72 73 74 76 77 78 75 74 74 73 71 70 70 70 71 71 73 72 73 73 73 73 73 72 71 71 72 72 72 72 73 73 73 74 75 76 77 78 79 78 78 81 79 77 64 54 55 56 55 67 82
78 76 76 76 76 76 76 76 77 77 76 75 72 73 75 75 75 76 76 75 75 75 73 72 73 72 71 72 74 75 75 74 74 73 72 71 71 72 72 73 73 72 71 70 71 71 72 73 74 73 74 76 78 76 78 77 69 56 55 54 55 67 82
75 75 76 77 79 79 77 77 76 77 76 74 72 74 74 75 75 73 73 73 76 76 74 73 73 74 75 75 74 74 73 73 72 72 71 70 70 72 71 71 70 69 69 69 69 69 69 70 71 71 71 74 75 75 76 73 71 63 53 53 55 57 75
76 77 77 79 78 76 78 78 79 79 79 75 75 77 77 76 74 72 71 72 73 73 73 74 75 74 73 73 74 74 74 75 74 73 74 74 72 72 70 69 68 67 67 67 67 67 67 68 69 70 69 70 70 70 70 71 70 64 53 53 54 55 65
74 78 79 77 75 76 77 78 76 76 78 78 79 79 78 75 72 71 71 71 71 73 76 76 75 75 74 73 73 75 76 75 75 76 76 75 75 73 72 71 71 70 70 69 68 67 67 68 68 68 68 69 68 68 67 68 68 66 58 53 52 53 55
67 70 72 73 75 76 76 75 76 76 76 78 80 79 77 76 73 73 73 71 72 76 76 76 75 75 75 74 74 74 75 74 73 73 77 75 75 74 73 73 72 72 72 71 71 69 68 68 69 69 69 68 69 69 69 69 68 64 65 56 52 52 54
71 70 71 74 76 77 78 76 76 75 76 77 76 76 76 75 73 73 72 71 75 77 77 76 75 74 74 74 74 74 76 76 75 74 74 75 74 73 73 73 73 73 73 73 72 70 68 68 70 71 70 68 68 69 70 70 69 66 65 63 55 53 52
71 71 71 70 72 73 75 75 73 74 75 75 74 75 74 74 72 72 71 73 75 76 76 76 76 74 74 74 75 75 76 74 73 73 74 74 74 72 72 72 73 73 74 73 72 70 69 69 72 69 68 68 68 68 69 70 71 71 68 66 63 56 54
70 70 69 68 69 71 73 73 73 73 72 72 74 74 75 74 74 71 72 75 75 76 76 76 74 73 73 75 76 76 76 76 76 75 73 73 73 72 72 70 69 70 72 74 74 74 73 74 74 74 72 70 71 70 70 71 73 72 72 71 71 67 60
65 66 66 65 66 67 68 70 71 71 71 70 72 74 74 74 74 74 74 75 76 77 76 75 74 73 74 74 75 76 76 76 76 75 74 74 74 73 73 73 71 70 69 69 71 73 74 74 73 73 74 74 74 73 72 72 73 73 73 74 75 74 72
63 63 65 67 68 69 68 68 68 69 69 69 70 72 73 74 74 75 76 77 79 79 76 74 74 75 74 75 76 76 77 75 73 74 76 76 76 76 75 74 74 72 70 71 71 71 72 73 74 74 75 75 75 75 75 73 72 71 70 69 70 72 73
61 62 64 65 68 68 67 67 67 67 68 69 70 71 71 72 74 74 74 76 77 76 75 75 74 75 75 75 75 74 74 75 76 76 74 72 71 69 68 69 73 70 67 65 63 65 69 72 72 74 75 76 75 74 73 73 70 66 55 57 51 56 66
59 60 61 64 67 67 67 67 67 66 67 68 70 70 71 71 72 73 76 75 75 75 74 73 73 74 74 75 74 74 75 75 76 75 74 75 72 70 67 57 49 56 67 64 55 48 46 52 61 63 71 71 68 67 70 70 65 49 44 43 43 44 45
59 59 59 61 62 63 65 66 67 67 66 67 69 69 70 70 70 71 72 74 75 74 73 73 72 72 73 73 74 73 73 73 73 74 73 72 71 69 67 66 62 46 44 51 50 47 43 43 44 45 47 61 69 60 48 49 44 42 42 44 44 43 42
60 60 60 61 60 61 62 63 65 66 66 67 68 69 70 71 71 70 72 72 73 73 73 73 72 71 72 72 70 70 71 71 70 71 71 70 70 69 68 67 65 63 48 43 47 46 43 43 43 43 44 43 50 62 63 51 44 41 43 43 42 44 41

ECMWFFLT1_sfc_temp_135.txt.gz
Temp
92 92 92 92 90 92 92 91 92 92 93 92 93 94 95 95 93 92 91 89 88 87 88 88 88 88 88 89 89 89 90 89 90 90 90 90 91 88 89 91 91 90 92 92 91 91 92 92 93 94 93 93 92 91 90 90 90 92 91 91 90 91 91
90 91 92 93 91 92 92 92 93 94 94 93 92 93 94 95 94 93 91 89 89 88 88 88 88 88 88 88 89 89 89 89 90 90 91 89 90 90 92 92 91 90 90 92 92 92 92 93 93 92 92 92 92 91 91 91 90 91 92 90 91 90 91
89 90 90 91 91 92 92 93 93 94 93 94 94 94 94 92 94 92 91 91 89 89 90 89 88 89 89 89 89 88 89 90 90 91 91 92 91 94 92 92 92 92 93 93 92 93 93 93 92 92 92 92 94 91 91 91 90 91 91 90 91 91 89
86 87 88 91 92 92 92 92 92 94 95 95 95 95 95 92 95 94 93 92 91 90 89 91 90 90 90 89 89 89 89 89 91 92 93 94 93 94 92 92 91 94 93 93 95 94 97 93 92 91 91 91 92 92 92 92 93 92 92 90 91 91 90
87 88 88 87 89 90 91 91 91 92 94 96 96 95 95 95 96 96 96 95 95 92 93 93 95 92 91 91 93 93 90 91 91 92 93 94 92 92 92 93 93 94 93 95 93 92 91 91 92 91 91 91 92 92 91 92 92 91 91 91 90 92 92
87 87 86 86 86 89 92 93 94 94 95 96 96 96 97 98 98 98 98 96 96 96 94 93 94 92 91 93 92 93 92 91 91 90 92 92 92 94 93 93 95 94 95 94 95 94 93 93 93 93 93 94 93 95 94 93 93 93 92 90 90 92 93
85 85 85 87 87 86 89 91 94 94 96 97 96 97 99 99 98 98 98 97 98 95 95 95 96 95 92 93 92 91 91 92 91 92 93 94 93 93 93 93 94 95 96 94 95 95 94 92 93 93 93 94 93 95 92 91 92 93 91 90 89 90 90
84 85 87 87 88 87 87 89 93 96 96 98 96 94 97 99 99 99 98 95 95 94 95 97 96 94 92 93 93 93 92 93 93 93 93 94 94 93 94 94 93 94 94 95 94 95 95 94 95 94 93 94 93 92 94 91 90 94 93 90 89 90 94
85 85 84 85 87 88 87 86 88 92 93 95 95 95 97 97 97 97 98 95 94 93 92 95 94 95 93 93 93 92 94 94 93 93 93 94 95 95 97 95 95 95 94 96 96 95 95 95 96 93 92 92 92 91 92 91 91 92 92 91 90 90 92
85 84 85 84 85 89 88 88 89 89 89 89 92 93 95 96 97 97 94 94 95 92 93 97 94 93 91 91 93 94 94 93 94 95 95 95 95 96 97 98 96 93 95 95 97 95 94 95 95 94 91 92 91 90 90 90 92 92 93 91 91 90 89
81 82 82 84 84 88 87 87 86 85 88 88 90 92 93 94 95 96 92 92 93 92 93 93 93 93 91 91 91 92 93 94 95 95 94 95 96 96 97 97 95 94 95 93 95 96 94 94 94 92 91 94 92 91 90 91 92 91 92 93 93 92 92
80 80 79 81 83 84 86 85 85 85 86 87 89 90 90 90 91 93 92 92 92 91 91 91 93 93 91 91 91 90 91 93 95 95 95 96 97 98 97 97 95 89 93 95 94 97 96 94 95 94 91 92 93 92 91 91 91 90 91 93 94 93 93
81 79 79 79 80 81 82 82 82 82 82 84 86 88 89 89 89 90 90 90 91 91 90 90 91 90 90 92 91 90 90 91 92 94 97 96 97 99 98 98 98 97 93 90 93 97 98 98 95 94 94 92 94 95 92 91 91 90 89 92 91 92 93
80 82 82 80 80 80 80 81 82 82 82 82 81 83 85 88 89 88 88 89 89 89 89 90 90 89 89 89 90 89 90 90 92 94 94 95 93 95 98 100 99 97 96 95 95 96 97 98 97 95 96 93 94 93 92 92 91 91 88 90 92 85 85
80 81 82 82 81 81 82 82 82 83 83 83 83 82 82 83 85 86 87 88 88 89 89 89 89 88 88 88 88 88 89 91 91 92 92 94 93 93 95 97 97 97 97 95 96 99 98 97 97 96 95 94 91 93 95 96 94 94 91 89 90 91 86
78 78 80 83 83 83 83 84 83 83 83 83 83 82 81 82 83 84 84 85 85 85 87 87 87 86 86 86 87 88 89 89 90 89 90 91 92 91 93 94 95 97 96 96 96 95 95 96 96 97 96 95 92 91 96 95 94 84 82 85 91 91 90
79 80 80 82 82 83 82 83 83 84 83 83 83 83 83 82 82 83 85 85 84 84 84 85 85 85 85 85 87 87 87 87 88 88 87 88 89 89 89 90 92 93 93 92 93 92 92 93 94 95 96 96 95 94 95 95 81 70 69 72 76 89 89
78 78 79 80 81 81 81 81 81 81 81 82 83 83 83 83 83 84 84 85 85 84 84 83 82 83 84 85 85 86 86 86 86 85 85 86 87 87 88 88 88 89 89 90 92 90 93 93 92 93 95 95 95 95 93 81 67 64 66 68 68 76 87
79 78 77 76 76 77 79 79 80 80 81 83 82 81 82 83 83 83 84 84 85 85 83 83 81 81 82 83 85 85 84 85 85 84 84 84 85 85 83 86 86 87 87 88 90 91 89 90 92 91 93 94 93 95 91 81 64 63 64 66 65 67 77
80 78 76 76 76 77 76 76 77 77 79 80 82 83 83 81 81 82 82 82 82 83 83 83 83 83 83 82 83 84 83 83 82 82 83 83 82 78 84 84 85 86 87 87 87 88 89 91 90 91 90 91 92 90 83 78 64 61 62 64 64 65 71
79 76 74 72 73 74 74 74 75 76 78 81 82 82 82 83 83 80 79 79 80 82 82 83 83 83 83 83 83 83 83 82 75 77 78 80 82 80 82 80 81 84 85 86 87 87 87 89 89 90 90 92 93 90 82 73 58 60 60 61 62 63 70
78 78 75 74 72 72 73 74 76 77 78 80 82 83 82 81 81 80 79 80 80 80 80 81 81 81 82 81 81 81 81 80 80 80 79 80 82 82 80 80 81 81 80 81 83 86 88 88 89 88 89 90 91 87 81 75 56 58 58 59 60 62 80
81 75 74 74 75 74 75 76 77 77 78 80 83 83 82 82 82 80 79 79 79 78 78 79 78 78 78 77 77 75 75 74 74 76 76 79 80 80 79 78 77 76 76 76 76 78 79 80 80 76 78 81 80 78 77 75 60 55 56 58 56 70 85
82 79 77 76 76 75 75 76 78 79 81 79 80 81 82 83 81 79 77 77 77 76 76 75 76 77 76 76 76 75 74 74 75 75 76 77 77 77 77 76 76 76 77 75 75 74 75 72 73 74 77 78 79 80 78 75 62 54 54 56 55 68 81
79 80 79 78 77 76 76 77 77 79 79 80 79 79 81 81 80 79 76 76 76 76 75 75 76 76 76 76 77 78 77 77 76 75 75 74 75 75 74 74 75 74 74 72 72 72 73 73 71 71 72 75 77 76 76 74 67 56 54 54 55 67 82
75 77 77 77 77 77 77 77 77 78 78 78 77 79 80 80 79 78 77 77 77 75 73 73 74 75 76 77 77 78 78 77 76 75 74 73 72 72 72 74 74 73 71 70 70 70 72 72 71 70 69 71 72 72 73 71 69 61 53 53 56 57 76
76 77 76 77 77 77 78 79 78 78 78 77 78 79 79 79 78 77 76 75 74 73 74 75 75 75 76 77 79 79 78 77 76 74 73 71 70 70 70 70 69 69 69 69 69 69 70 70 68 67 67 68 68 69 70 70 69 65 54 54 55 56 66
77 78 79 78 78 79 80 80 79 80 81 81 81 79 78 77 75 75 74 73 73 74 77 76 76 76 76 76 76 77 77 77 75 74 72 72 72 71 70 71 71 70 70 69 68 68 67 68 67 66 65 65 66 67 67 68 68 67 60 55 54 54 57
74 76 77 77 78 80 80 79 79 81 82 84 83 80 79 78 75 74 73 71 73 77 77 78 77 77 76 74 73 71 72 74 76 77 78 75 73 73 72 72 72 71 71 70 69 68 67 68 68 67 65 65 65 66 65 66 67 65 66 58 54 53 56
73 76 78 81 82 81 80 77 77 78 79 79 78 77 77 77 74 74 74 73 77 78 77 76 76 76 75 74 73 74 74 75 76 78 77 76 74 72 72 72 73 73 72 72 71 70 69 68 69 69 68 67 67 67 67 67 66 67 66 64 57 55 54
73 75 75 76 77 77 77 75 74 76 75 75 76 76 76 76 74 73 72 74 77 76 76 76 76 75 75 75 75 75 75 74 75 75 75 76 76 74 73 73 74 73 74 74 72 71 71 71 72 70 69 68 67 67 69 70 70 70 69 68 65 58 57
72 74 76 77 76 77 76 75 72 70 71 73 75 75 75 75 75 73 73 77 77 78 77 77 76 75 76 77 78 77 77 77 77 77 76 75 75 74 74 74 74 74 74 74 73 72 72 71 70 69 69 68 68 67 67 68 69 69 71 72 72 69 63
69 70 70 71 73 74 75 74 74 72 72 71 74 75 75 75 75 74 76 76 78 78 77 76 76 75 75 75 76 76 79 78 78 77 75 75 75 74 74 75 74 72 72 72 71 70 73 74 72 71 72 71 71 72 72 72 73 73 74 73 74 75 74
65 65 67 71 72 73 72 72 71 72 72 72 73 75 76 76 76 76 77 78 80 79 77 75 75 76 76 78 79 79 80 78 76 77 78 78 78 77 76 75 76 72 67 65 68 73 72 73 74 73 74 74 74 74 74 74 74 71 69 68 68 71 74
65 65 65 66 68 70 70 70 70 70 71 72 73 74 75 76 78 78 77 78 79 76 76 75 76 76 77 77 78 77 77 78 79 80 78 75 71 67 64 66 74 70 65 62 61 63 68 73 69 71 76 71 69 71 74 73 68 64 54 55 50 55 64
66 66 65 65 65 65 67 69 69 69 70 71 73 73 72 75 76 77 79 77 77 77 75 75 75 76 76 77 76 76 77 78 79 78 77 77 73 70 66 55 47 55 66 64 54 47 47 53 60 61 69 69 64 63 66 65 60 49 45 43 43 44 44
65 64 64 64 62 62 64 66 68 69 69 70 71 71 71 71 72 73 75 76 77 76 75 75 74 75 76 75 74 75 77 77 76 76 75 74 72 70 68 66 61 45 44 51 50 47 43 43 44 46 50 62 65 56 48 48 46 43 42 44 44 42 41
66 65 65 64 62 60 60 61 64 66 67 69 70 71 72 72 72 72 75 74 75 76 75 75 74 74 75 75 73 73 75 76 75 74 73 72 72 71 70 69 65 63 47 43 46 46 43 42 43 44 44 45 52 63 62 50 43 42 44 44 42 42 41

ECMWFFLT1_sfc_temp_138.txt.gz
Temp
90 90 89 88 88 91 89 88 89 89 90 90 90 91 93 91 87 88 87 85 85 84 84 84 85 85 85 85 84 83 84 84 85 85 85 86 86 86 86 87 87 86 88 88 87 87 87 89 89 90 89 89 88 88 87 87 87 89 88 88 86 82 85
88 90 90 91 89 90 91 90 90 90 91 91 91 90 91 91 88 88 86 86 86 85 85 85 84 85 85 85 86 85 84 84 86 86 87 86 85 86 87 88 87 87 87 88 88 88 89 90 90 89 89 89 89 88 89 87 87 88 88 87 86 85 85
85 88 88 88 89 91 89 90 91 92 91 91 92 92 91 88 89 88 87 87 86 86 87 86 85 85 86 85 85 85 86 87 87 88 88 88 87 89 88 88 88 89 90 90 88 89 90 90 89 88 89 89 91 88 88 87 87 88 88 87 87 88 85
82 85 87 90 89 90 89 89 90 93 93 92 93 92 91 89 92 89 89 88 87 86 86 87 87 87 87 85 85 86 86 87 88 89 90 89 89 89 88 88 88 89 89 90 90 90 93 90 89 88 88 88 88 88 89 88 89 88 88 87 87 88 87
83 84 86 86 86 87 88 89 89 91 92 94 94 92 93 92 94 92 91 91 91 88 89 89 90 89 88 88 89 89 88 88 88 89 90 90 89 90 89 90 90 91 90 92 90 89 88 88 89 88 88 88 89 88 88 89 89 88 87 87 86 88 88
82 79 81 85 86 88 90 90 92 93 92 93 93 93 94 95 95 94 93 91 91 91 90 89 90 89 88 89 89 90 88 88 87 88 90 88 88 90 90 90 92 91 92 91 92 91 90 90 90 89 89 90 91 91 91 90 90 90 88 87 87 88 89
82 80 79 82 85 86 89 89 91 92 94 94 93 94 95 95 95 95 94 92 93 90 91 91 91 90 89 89 88 88 88 89 89 89 91 91 89 91 90 91 91 92 93 91 91 91 90 90 90 90 90 91 89 91 89 88 88 89 87 86 86 87 87
81 82 81 84 85 86 87 90 92 94 94 94 93 91 94 95 95 95 95 90 91 90 91 92 92 90 89 89 90 90 89 89 90 90 90 91 91 91 92 92 91 91 92 92 91 92 92 90 92 91 91 91 90 89 91 88 88 91 89 87 86 87 90
79 80 83 84 86 86 85 86 89 92 92 93 93 92 94 94 94 93 95 92 91 89 88 91 91 91 89 90 89 89 90 91 90 90 91 91 91 92 92 92 92 91 91 93 93 92 92 91 92 89 90 90 89 89 88 86 88 89 89 88 87 86 88
77 76 78 84 85 86 83 83 85 85 86 88 90 90 93 93 94 94 90 91 93 89 91 94 90 88 87 88 90 91 91 90 91 92 91 92 91 92 92 92 92 92 92 92 92 93 90 90 91 91 88 89 89 88 88 87 87 89 89 88 88 87 86
78 78 78 80 83 83 83 83 82 81 83 82 84 89 90 91 91 93 88 88 90 89 90 90 89 88 88 88 88 89 90 91 92 91 91 92 93 93 94 91 92 92 93 92 90 90 92 89 90 89 88 91 89 88 87 88 88 88 90 90 89 88 88
76 77 75 78 81 82 81 81 81 81 82 82 83 84 85 87 88 89 87 87 89 88 88 89 89 89 88 88 88 87 88 90 91 92 92 92 93 93 92 93 92 92 92 93 90 89 91 92 91 89 88 89 89 89 88 88 88 88 88 90 90 89 89
77 77 76 77 76 80 80 81 81 81 82 83 85 85 85 85 87 87 86 87 88 88 87 88 88 87 87 90 89 86 87 88 89 91 93 92 93 95 94 91 93 92 93 92 91 90 90 92 91 90 90 89 90 90 88 88 89 87 88 88 89 88 87
74 72 74 77 78 80 81 81 82 82 82 85 85 85 85 86 88 87 86 86 87 87 88 88 88 87 87 87 88 86 87 87 89 91 91 92 89 91 95 94 91 92 92 91 91 92 91 91 91 92 91 90 91 90 89 88 88 88 87 88 89 88 86
68 70 72 73 78 81 82 82 81 81 82 81 82 81 82 85 87 87 87 87 86 87 87 87 87 87 86 86 86 86 86 87 89 89 89 91 89 89 91 93 91 90 91 90 91 94 93 91 91 91 91 90 89 90 90 90 88 87 87 87 87 87 87
68 67 69 71 76 79 81 82 82 81 81 81 81 81 81 81 82 84 86 86 85 85 85 86 86 86 86 85 85 86 86 87 87 87 88 89 89 89 90 92 93 92 90 91 91 91 90 89 88 90 90 90 88 89 91 90 90 85 85 86 87 87 88
67 68 69 69 68 71 76 82 82 81 80 80 81 81 80 81 82 84 85 84 83 83 84 85 83 80 79 81 84 83 85 86 86 86 86 87 88 88 88 88 89 90 89 89 90 89 89 92 92 91 91 91 90 88 90 87 76 68 67 72 78 88 86
68 70 68 69 72 72 69 72 79 81 81 82 82 81 81 81 82 82 83 84 84 84 85 85 81 79 79 78 79 78 75 73 75 80 84 85 83 84 86 87 87 86 87 89 91 88 92 92 91 91 93 93 90 90 84 76 66 63 65 68 68 72 83
77 73 72 71 70 68 69 70 70 71 75 78 80 81 83 83 82 82 82 82 83 84 83 83 81 79 78 78 78 77 74 73 74 72 71 71 72 72 74 76 78 79 81 85 87 90 88 88 89 89 90 91 89 85 80 74 63 63 64 65 65 67 77
76 75 70 70 70 70 71 70 71 73 72 70 70 72 72 73 74 77 81 82 83 83 82 82 82 80 79 78 78 75 73 74 72 71 73 73 72 72 73 74 76 77 77 77 81 84 86 90 87 88 88 88 83 77 75 70 62 61 62 63 63 66 72
72 72 72 71 70 70 70 71 72 70 71 72 75 74 73 72 76 80 80 80 81 81 80 79 77 75 75 75 75 73 74 73 71 72 73 74 72 71 71 72 75 76 75 76 76 74 72 71 72 76 77 79 81 77 73 67 58 59 60 61 62 64 72
72 74 75 74 73 72 71 72 71 71 71 73 76 76 75 75 78 79 77 80 80 79 77 75 74 75 74 74 75 73 74 74 73 72 73 73 73 72 72 73 74 75 76 76 75 74 72 73 74 74 76 77 78 75 72 67 57 57 58 59 60 65 80
73 75 76 76 77 75 76 76 75 74 73 73 76 77 77 75 77 77 78 81 80 80 74 72 73 74 74 75 73 74 73 73 74 74 74 74 74 74 75 76 76 76 76 76 75 72 71 71 72 73 75 75 74 72 69 68 59 56 56 58 58 71 83
75 76 76 76 77 77 77 77 79 79 80 78 78 80 81 82 81 79 78 78 79 79 77 74 73 74 73 71 75 75 74 75 76 76 76 75 75 75 76 77 76 76 77 76 75 71 71 71 71 72 73 74 73 73 70 68 60 55 55 57 57 69 79
72 75 77 77 76 76 77 76 77 79 79 79 78 78 79 79 80 79 77 77 77 77 75 76 76 74 73 72 73 75 75 75 74 76 76 74 72 73 74 75 74 74 75 75 74 72 72 73 70 69 69 70 70 72 68 67 63 56 56 56 57 67 79
69 72 75 77 77 76 76 77 77 76 76 77 77 79 79 80 79 77 75 74 74 72 72 72 73 76 77 75 74 76 74 76 74 73 73 73 73 72 72 73 73 73 73 73 73 72 72 71 70 68 68 68 68 68 67 65 63 60 55 55 57 61 74
72 75 76 77 77 77 77 77 77 76 77 76 76 78 78 76 74 73 73 73 71 71 72 73 73 74 75 76 77 76 74 73 72 71 72 72 70 70 70 69 69 70 70 69 68 68 67 67 67 66 66 66 66 66 66 66 65 61 55 55 56 58 66
73 76 77 78 77 77 78 78 76 78 78 77 77 78 77 74 71 71 72 72 71 72 73 73 73 72 71 71 72 73 73 72 72 73 72 72 71 70 69 69 70 69 69 68 67 67 66 66 66 65 64 64 64 64 64 67 68 64 60 56 55 56 60
67 67 69 74 77 79 80 77 76 76 76 78 78 76 74 73 71 70 71 70 72 74 74 74 73 72 72 71 71 71 72 73 74 74 74 73 72 71 69 70 70 69 69 69 68 67 66 65 65 64 63 63 63 63 63 64 65 66 65 59 55 55 57
67 69 70 75 78 78 76 74 75 76 76 77 77 76 75 73 71 70 70 69 73 75 76 74 73 72 71 71 71 71 72 73 74 74 73 73 72 72 71 70 70 70 70 69 69 67 66 65 65 64 64 63 63 65 65 66 66 66 67 65 58 56 55
67 70 73 74 75 73 73 73 73 74 74 75 75 75 75 75 73 72 70 72 74 74 75 75 75 74 72 72 72 72 74 73 73 73 74 74 74 73 72 72 72 70 71 71 70 69 68 68 68 66 67 66 66 66 68 68 69 69 68 68 64 59 58
67 68 70 73 74 75 74 74 74 73 73 73 75 75 74 74 75 73 73 75 76 76 76 75 75 74 73 73 73 73 73 71 70 72 73 74 74 73 73 73 73 72 72 72 71 71 70 69 68 68 67 67 68 67 68 69 70 69 70 70 72 68 63
66 67 68 68 70 72 73 73 73 72 73 73 75 75 76 76 76 75 76 75 77 77 76 75 75 75 76 75 75 74 73 73 73 71 71 70 71 73 73 72 69 67 67 69 71 72 71 70 69 69 69 68 67 68 68 69 68 67 66 66 67 69 68
68 68 68 69 71 73 73 72 72 71 71 71 73 75 76 76 76 77 78 79 77 77 76 76 76 76 75 76 77 77 77 76 75 73 71 68 66 64 65 71 69 64 61 61 62 65 70 71 70 70 70 70 70 70 69 66 64 64 62 61 63 65 67
67 68 69 69 70 70 70 70 70 70 71 71 72 74 73 72 74 77 75 76 76 75 75 74 75 75 76 76 76 74 75 76 76 74 70 67 64 61 58 57 67 66 61 58 57 59 65 69 68 69 66 65 64 68 66 64 62 58 54 54 50 54 59
66 67 67 69 69 69 69 69 70 70 70 70 72 71 70 71 72 72 75 75 75 74 73 73 74 74 74 73 74 75 75 75 76 72 71 70 67 64 61 53 46 52 61 60 55 49 48 53 60 63 66 62 58 60 65 62 59 50 43 42 42 42 43
66 65 65 67 67 67 67 67 67 67 67 68 70 70 70 70 72 72 72 72 72 74 73 74 71 72 73 73 74 73 73 75 73 72 69 69 68 66 64 61 56 43 43 50 51 49 45 45 45 47 53 62 60 53 48 49 45 42 42 42 41 41 41
66 66 66 66 66 66 66 66 66 66 66 66 67 68 70 71 70 70 72 72 71 71 72 73 72 71 73 73 71 71 73 72 71 71 70 69 68 67 66 65 61 59 46 42 44 45 44 44 44 45 45 47 54 61 56 48 43 41 42 42 41 41 41

ECMWFFLT1_sfc_temp_141.txt.gz
Temp
84 83 82 81 82 83 81 82 82 82 82 83 83 84 85 85 82 82 81 80 79 79 79 80 80 80 80 80 80 80 80 79 80 80 80 80 81 80 80 80 81 80 80 80 80 80 81 83 83 83 82 82 81 81 81 81 81 83 81 81 81 80 80
83 84 83 83 82 82 83 83 82 84 84 84 83 84 85 84 82 82 81 80 80 79 80 80 80 80 80 80 80 79 79 79 80 81 81 81 82 81 81 81 81 80 80 81 81 81 82 82 83 82 82 82 82 81 82 81 80 80 80 80 79 79 80
80 82 82 81 82 83 82 83 82 85 84 85 86 85 85 82 83 82 81 81 80 80 80 80 80 80 81 80 79 79 80 80 80 81 80 81 82 84 83 82 82 81 83 83 82 83 84 83 83 82 83 82 83 81 81 80 80 81 80 79 80 80 79
78 79 82 83 83 83 83 82 82 85 86 85 86 86 84 82 85 83 83 82 80 80 79 81 81 81 81 80 80 80 80 80 82 83 83 83 83 83 83 81 83 84 83 83 85 86 88 83 82 82 84 82 81 83 82 82 82 81 81 80 80 80 80
78 78 80 81 81 80 82 82 82 84 85 86 87 86 84 85 86 84 84 84 83 82 82 82 83 83 82 82 83 82 82 82 82 83 84 84 83 83 83 83 83 84 82 85 83 84 82 82 82 81 81 81 81 82 82 82 82 81 80 80 80 81 81
78 77 76 80 81 81 83 83 85 85 85 86 86 86 85 86 86 85 85 84 84 84 83 83 83 82 82 83 84 84 83 82 82 83 83 82 83 84 83 84 85 85 85 84 85 85 83 84 84 82 83 83 83 84 83 82 83 83 80 80 80 81 82
77 75 74 78 80 80 83 83 85 85 86 88 86 87 87 88 87 86 86 85 85 83 84 83 84 83 82 83 83 83 82 83 83 83 83 85 84 84 84 84 85 85 87 84 85 85 84 84 84 83 84 84 81 85 82 82 81 82 80 80 79 80 80
78 76 75 76 81 81 83 84 87 87 87 88 86 85 87 88 87 86 86 84 84 84 84 85 85 84 83 84 84 83 84 84 84 84 83 85 85 83 85 84 84 85 85 86 85 85 86 84 86 85 85 84 83 82 84 82 81 83 82 81 79 80 85
77 77 77 76 79 82 83 83 85 87 85 86 86 86 87 87 87 86 87 85 84 83 83 85 84 84 84 84 83 82 84 84 84 84 84 86 85 86 86 86 85 86 85 87 86 86 86 85 86 84 84 84 83 82 82 82 83 82 82 81 80 80 83
77 75 75 77 77 79 81 82 83 84 81 83 84 85 86 86 87 87 84 85 85 83 84 86 83 83 82 81 83 84 84 83 84 85 86 86 86 87 87 87 86 86 85 86 87 87 85 86 86 84 82 83 82 81 81 81 82 82 82 82 82 81 81
74 73 74 76 76 76 76 79 80 81 77 79 82 85 86 84 85 85 82 84 84 83 84 85 82 83 82 81 82 82 83 84 85 85 85 86 87 88 88 87 87 86 86 85 85 86 86 85 84 83 83 86 82 82 81 82 82 82 83 83 83 82 82
72 72 72 75 76 76 74 77 77 77 76 76 79 82 82 80 81 83 81 84 84 83 83 82 82 83 82 82 82 80 81 83 84 85 86 86 87 88 87 88 86 86 86 86 86 83 85 85 85 83 83 83 83 83 82 82 82 81 82 83 83 83 83
68 68 68 71 73 74 75 76 75 75 75 76 77 80 82 80 80 80 80 82 83 83 83 81 82 82 82 83 82 81 81 81 82 83 86 85 86 88 87 87 88 88 87 86 86 85 84 85 84 84 84 83 83 84 83 83 83 82 82 83 83 82 82
70 70 71 72 74 73 73 74 75 75 75 78 79 79 79 81 79 80 80 82 82 83 83 81 82 82 82 82 82 81 80 80 82 83 83 85 83 84 87 88 87 87 87 86 85 86 86 86 85 85 85 85 84 83 84 82 82 81 82 83 83 81 81
68 70 72 72 71 71 70 71 72 73 76 77 79 79 78 78 78 80 80 81 81 83 82 81 81 81 81 81 80 79 80 80 81 81 81 83 84 83 83 86 86 86 86 86 86 88 87 87 86 85 85 84 84 83 84 84 83 82 82 81 81 81 80
68 68 69 69 69 69 69 69 69 70 72 76 77 78 78 75 77 79 79 79 80 81 81 80 80 80 80 80 79 79 79 78 78 78 80 81 82 83 83 84 85 86 86 85 86 85 85 85 85 86 85 84 83 83 86 85 84 81 82 83 81 80 82
66 67 68 67 67 68 67 67 69 70 71 72 74 74 73 74 76 78 79 78 78 78 79 80 79 79 77 76 75 75 74 73 72 73 73 73 75 76 79 80 83 83 82 82 84 83 82 85 85 85 85 85 84 83 84 78 73 69 66 71 76 83 81
66 66 67 68 68 68 67 68 69 69 71 72 73 71 72 73 73 74 75 78 78 79 79 77 74 73 72 72 73 73 72 71 72 73 72 73 73 73 74 78 79 79 79 80 82 81 83 83 83 83 84 86 85 82 74 70 65 63 65 66 68 73 78
66 66 67 67 67 66 67 67 68 69 69 70 71 71 72 74 75 75 75 76 77 78 74 73 73 72 72 72 73 71 71 72 71 72 73 74 73 72 72 73 76 77 77 76 77 78 77 77 78 79 79 79 75 73 71 68 64 62 64 65 65 67 74
67 67 67 67 68 67 67 67 68 69 69 69 70 71 71 73 73 74 76 77 74 72 72 73 73 73 73 73 73 72 71 72 72 72 72 72 71 71 70 72 74 74 74 74 73 73 74 76 75 76 75 74 72 69 69 67 63 61 62 63 64 65 69
66 66 66 66 66 67 68 68 67 68 69 70 72 71 71 71 75 75 74 75 73 72 71 72 72 72 72 72 72 72 71 71 71 71 72 72 71 71 70 71 72 73 73 73 72 72 71 72 73 76 76 75 73 71 69 66 59 59 61 61 63 63 70
66 67 66 66 66 66 67 67 68 68 68 69 71 73 73 72 74 74 74 74 73 71 72 72 72 72 71 71 71 72 72 72 71 71 72 72 71 71 70 71 72 73 73 72 71 71 71 72 73 73 73 73 73 71 68 64 57 58 58 60 61 67 74
67 67 68 68 69 68 68 69 68 68 69 69 70 72 73 73 74 74 74 74 73 71 70 70 70 70 71 72 72 72 72 71 71 71 71 72 71 71 71 72 72 74 73 72 71 70 70 70 71 71 70 70 69 67 65 64 59 56 57 58 61 73 76
68 69 69 69 69 69 69 70 70 71 70 70 70 71 72 75 75 73 72 73 73 71 70 69 69 70 71 71 72 71 71 71 72 71 72 72 72 72 72 73 73 72 73 71 70 69 69 69 68 68 68 68 67 68 65 64 60 55 56 58 62 73 75
68 68 68 68 69 68 69 69 70 71 71 70 69 70 71 72 73 72 71 72 72 71 70 70 70 69 69 69 70 71 72 72 71 71 72 72 71 71 72 72 72 71 71 70 70 70 69 69 67 67 66 66 66 69 64 63 62 56 55 56 62 72 76
67 68 68 68 70 70 69 70 69 68 68 68 69 71 71 71 70 70 70 70 71 69 68 68 69 69 70 71 71 71 71 71 72 71 71 71 70 70 70 71 71 71 71 70 70 69 68 68 66 65 65 65 64 65 64 63 62 60 54 55 57 64 74
68 68 68 70 71 72 71 70 68 67 67 68 69 70 71 70 69 69 69 69 68 68 68 69 70 71 70 69 70 71 70 70 70 70 70 70 69 69 70 70 70 71 70 70 69 68 66 65 64 63 63 64 64 64 64 65 63 60 55 55 56 59 67
67 68 70 71 72 73 74 73 71 70 68 68 69 69 69 69 68 68 68 68 67 68 70 70 70 70 70 70 70 69 69 69 68 69 69 69 69 68 67 68 69 68 68 67 66 65 64 63 63 62 62 62 63 64 63 66 66 63 59 56 55 56 61
64 64 66 69 72 73 73 71 71 70 70 71 70 70 70 69 68 68 68 67 67 69 70 70 70 70 70 69 70 70 70 70 70 70 70 69 69 68 66 67 66 66 66 65 65 63 62 62 61 61 60 61 61 62 63 64 66 65 63 58 55 55 57
65 66 66 70 72 72 72 70 70 70 70 71 71 71 71 69 68 68 68 68 70 71 71 71 70 70 69 69 69 70 70 71 71 70 69 69 69 67 66 66 66 66 67 66 65 64 62 61 61 61 61 61 61 63 63 63 63 65 66 63 57 55 55
63 64 66 67 69 70 70 69 68 69 69 70 70 70 70 71 69 69 68 69 71 70 71 70 70 69 68 67 66 68 70 70 70 70 70 69 68 67 67 67 68 66 66 66 66 65 64 63 64 63 63 63 62 62 64 65 65 65 67 68 64 58 57
63 64 64 65 67 69 70 69 68 68 67 68 70 71 70 70 70 69 69 71 72 72 71 71 70 70 69 69 69 68 69 68 67 67 67 68 68 68 68 68 68 68 67 67 67 67 66 65 66 65 65 64 64 63 64 64 63 61 64 67 67 65 61
62 63 62 62 65 65 65 67 67 67 67 67 68 69 71 72 71 69 69 70 72 72 71 71 70 70 69 69 71 71 70 69 67 65 64 63 63 64 64 62 61 61 62 64 66 67 67 67 66 65 65 65 65 65 63 62 61 60 59 60 61 62 62
61 62 62 63 65 64 64 65 65 65 65 65 65 66 68 69 69 69 69 70 71 71 70 70 70 69 69 70 70 70 70 69 68 64 61 59 58 58 60 60 59 57 56 56 59 64 66 66 66 64 64 63 63 63 61 60 59 58 57 57 58 59 59
61 61 62 62 62 63 63 63 63 64 65 64 64 65 65 66 67 68 67 68 68 68 68 68 70 69 68 68 68 69 69 66 65 63 60 58 55 53 51 53 57 57 56 56 55 56 62 62 61 62 61 62 63 62 60 59 57 55 50 50 50 54 55
62 62 62 62 62 62 62 63 62 63 64 63 64 63 64 64 65 66 68 67 68 68 67 67 67 66 66 67 67 68 68 65 64 63 62 60 57 56 54 51 45 49 56 55 55 51 51 53 57 60 60 57 55 58 60 58 56 48 43 41 41 42 43
62 62 62 63 62 62 62 62 62 62 63 64 65 64 63 62 63 64 65 65 66 66 65 65 66 67 66 67 68 68 67 66 64 64 62 61 59 58 56 54 53 44 43 50 52 49 46 45 47 50 55 59 55 51 47 48 45 41 41 40 40 40 40
61 61 62 63 63 63 63 63 62 62 62 63 64 62 62 63 63 62 64 64 64 65 65 65 65 66 66 66 67 68 66 65 65 64 63 61 60 59 57 56 54 54 46 42 46 47 44 44 45 45 47 51 54 56 50 45 42 40 39 38 39 40 40

ECMWFFLT1_sfc_temp_144.txt.gz
Temp
79 79 79 78 79 80 79 79 80 79 80 81 81 81 81 81 79 79 78 78 77 77 77 78 78 78 77 78 77 77 77 77 78 77 77 77 77 77 76 77 77 77 77 77 77 77 78 79 80 80 79 79 79 78 78 78 78 80 78 78 78 78 77
78 79 81 80 79 80 80 80 81 81 80 81 81 80 81 81 79 79 78 78 78 77 77 78 78 78 78 78 78 77 77 77 78 79 78 77 78 77 78 78 78 77 77 78 78 78 79 79 80 79 79 79 79 78 79 78 78 78 78 77 77 77 78
76 78 79 79 79 79 79 80 81 82 81 81 81 81 81 80 80 79 78 78 77 77 78 78 78 78 78 78 77 77 78 77 78 79 78 78 78 79 79 78 78 78 79 79 79 79 80 80 79 79 79 79 80 78 78 78 78 78 78 77 77 77 77
75 75 78 80 80 80 80 80 81 82 82 81 82 81 81 80 81 80 80 79 78 77 77 78 79 79 78 78 78 77 78 78 79 79 80 80 79 80 79 78 79 80 79 79 81 81 83 80 80 78 81 79 79 79 79 79 79 78 77 77 77 77 77
76 74 76 77 78 78 79 79 80 81 81 82 82 82 82 81 82 81 81 81 80 78 79 79 80 80 79 79 80 79 79 78 79 79 80 80 80 80 80 80 80 80 80 81 81 80 80 80 80 79 79 78 79 78 79 79 78 77 77 76 77 78 77
76 75 74 77 77 79 80 81 82 82 81 82 82 82 82 82 82 81 81 81 80 80 80 79 80 79 79 80 80 80 79 79 79 79 80 79 79 80 80 80 81 81 81 81 82 82 80 80 80 80 80 80 80 81 80 79 79 79 77 77 77 78 79
73 73 73 75 77 78 80 80 82 82 83 83 82 83 83 83 82 82 82 81 81 79 79 79 80 80 79 80 80 79 78 79 79 79 80 80 80 80 80 81 81 81 82 81 81 82 81 81 80 80 81 81 79 81 80 78 79 79 77 77 77 77 77
73 72 71 74 77 79 80 80 82 83 83 83 81 81 82 83 82 82 81 80 80 80 80 80 80 80 79 80 80 80 80 80 80 81 80 81 81 80 81 81 80 81 81 81 81 82 82 81 82 81 81 81 79 79 80 79 78 80 78 77 77 77 80
74 71 69 70 74 80 81 80 82 83 82 82 81 81 82 82 81 81 82 81 80 79 79 80 80 81 80 80 80 79 80 81 81 81 81 82 81 82 82 82 82 82 82 82 82 82 82 82 83 80 80 80 78 78 79 78 79 79 79 78 77 77 78
66 68 69 68 69 69 75 81 81 81 80 81 80 80 82 82 82 82 81 81 80 79 80 81 80 80 79 79 80 80 81 80 81 82 82 82 82 83 83 84 83 82 82 83 83 83 82 82 83 81 80 80 79 78 78 79 79 79 79 79 78 78 78
68 68 68 69 69 72 72 75 78 79 79 79 80 81 82 81 81 81 80 80 80 80 81 81 80 80 79 79 79 79 80 81 82 82 82 82 83 84 84 85 84 83 83 83 83 83 83 82 81 81 80 81 80 79 78 79 80 79 80 80 80 80 80
69 69 69 69 71 72 72 75 75 77 79 79 79 80 80 80 80 80 80 80 81 80 80 81 80 80 79 79 79 78 79 80 81 82 82 83 83 84 84 85 84 83 83 83 84 83 83 83 82 81 80 81 81 80 79 79 80 80 79 80 81 80 81
68 69 69 70 70 71 71 73 73 72 74 78 79 80 80 80 79 80 79 80 81 81 81 80 80 79 79 79 80 78 79 79 80 81 83 82 82 84 84 83 84 85 84 83 84 84 83 84 82 81 82 81 81 81 80 79 80 79 79 79 80 80 80
68 68 69 69 69 70 69 68 71 73 73 73 75 79 80 80 80 80 80 79 80 80 80 80 80 79 79 79 79 78 78 79 80 81 82 82 81 81 84 84 84 84 84 83 83 84 84 84 83 82 82 82 82 81 81 80 80 79 79 79 80 80 79
65 66 66 67 68 68 68 70 70 71 71 73 74 72 72 75 78 79 80 81 80 80 80 80 79 79 79 79 78 78 79 79 80 80 80 82 81 80 81 83 83 83 82 82 83 85 85 85 84 82 81 82 81 81 82 81 81 80 80 80 79 79 79
64 64 65 66 66 66 66 67 68 69 70 71 74 75 74 74 75 76 77 78 80 80 80 80 79 79 79 79 79 79 79 78 79 79 78 79 80 80 80 81 82 82 79 81 83 82 83 83 83 83 82 82 80 80 82 82 83 83 84 83 81 78 80
63 64 65 66 67 67 66 67 67 68 68 69 71 74 74 74 75 76 78 77 75 75 77 79 78 78 78 78 79 79 78 77 77 77 76 76 78 78 77 78 80 81 81 82 82 82 81 82 82 83 83 83 82 80 81 78 74 69 66 71 77 80 78
63 64 66 66 66 66 66 66 67 68 68 68 69 71 71 72 75 75 74 74 74 74 76 76 76 76 76 75 75 75 75 73 74 75 74 73 74 75 76 77 77 78 78 79 80 79 81 81 81 81 82 83 81 80 75 72 68 64 66 68 70 75 77
64 64 65 65 65 65 65 66 66 67 67 68 69 68 69 69 72 70 71 72 73 74 75 76 76 74 73 73 73 74 74 73 74 73 73 73 72 71 73 75 77 77 77 78 78 78 77 77 78 77 77 78 75 75 72 70 65 63 65 65 65 69 76
64 65 65 65 66 66 65 66 66 67 68 68 69 70 70 70 70 70 72 73 74 74 73 73 74 74 74 73 73 73 72 72 73 73 72 71 70 70 72 73 73 73 73 74 74 75 74 75 75 75 75 75 74 71 69 67 63 62 63 64 65 66 71
64 65 64 65 65 66 66 66 66 66 68 69 69 70 71 70 71 71 71 72 73 72 71 70 71 72 73 73 72 71 71 72 71 71 71 71 71 70 71 71 72 72 72 72 72 72 72 72 73 74 74 74 72 70 68 66 60 60 62 62 64 64 72
65 65 65 65 65 65 65 66 66 66 67 69 69 70 71 70 71 71 70 71 71 70 71 72 72 72 71 71 71 71 71 71 71 71 71 71 71 70 70 71 71 71 71 71 70 71 72 72 73 72 71 71 71 69 66 64 57 58 59 60 63 65 74
66 66 66 67 67 66 67 67 67 68 68 68 69 70 70 71 71 71 71 70 70 69 69 69 70 70 70 70 71 71 71 71 71 71 71 71 71 70 71 72 72 72 72 70 70 70 70 70 70 69 69 69 68 67 64 64 59 55 56 57 59 66 74
66 66 67 67 67 67 68 68 68 69 68 68 68 69 70 70 70 70 69 69 69 69 68 68 68 69 69 69 70 70 70 71 71 70 70 70 71 71 71 72 73 72 73 70 70 69 69 68 67 66 67 67 66 67 65 64 60 55 54 55 58 66 74
65 65 67 67 67 66 66 67 68 69 69 68 68 69 70 69 69 69 68 68 68 68 68 69 68 69 69 69 70 70 70 70 71 70 70 68 69 71 71 72 71 72 71 70 69 69 68 68 65 65 65 65 66 69 64 63 62 55 54 54 55 64 75
64 65 65 66 67 67 67 68 68 67 67 67 67 69 69 69 69 68 67 67 67 67 67 68 68 69 68 68 69 69 69 70 71 71 71 69 70 70 70 71 71 70 69 69 68 67 66 66 64 62 62 63 63 64 63 62 61 59 53 52 54 59 73
64 65 65 67 67 68 66 66 66 66 66 66 67 68 68 68 67 66 67 66 66 66 66 68 69 69 68 68 69 69 68 68 68 69 70 70 70 70 70 70 69 69 68 68 67 65 64 63 63 62 62 62 63 63 64 64 62 60 54 53 53 56 68
65 66 67 67 70 69 67 67 66 67 67 67 67 68 68 68 66 66 66 65 65 66 67 68 67 68 68 69 68 68 68 68 68 69 69 70 70 69 69 69 69 69 69 68 65 64 63 63 62 61 61 61 62 63 63 66 66 62 57 54 53 53 54
61 62 63 65 66 68 69 67 67 67 67 68 68 68 68 67 66 66 66 65 65 67 68 68 68 68 68 68 68 68 68 68 68 68 69 68 68 67 67 68 68 68 67 65 64 63 62 61 61 61 60 60 61 62 63 63 65 63 61 56 53 53 55
62 62 63 66 67 67 67 66 67 67 67 67 67 67 68 67 66 66 65 64 67 68 68 67 67 67 66 67 67 67 68 69 68 68 67 67 67 66 66 65 66 65 65 64 63 61 60 60 60 60 60 59 60 62 62 63 62 64 63 60 55 53 53
60 61 62 63 65 66 65 65 65 66 66 66 66 66 66 68 67 66 65 66 68 67 67 67 67 66 65 64 64 65 66 65 65 66 66 66 66 65 65 65 65 63 64 63 62 61 60 60 62 61 61 61 60 61 63 63 62 63 65 64 61 56 54
61 61 62 62 63 65 64 63 63 64 65 65 66 66 66 66 66 66 66 67 68 67 68 68 66 66 65 64 64 64 64 63 63 63 63 64 64 62 62 63 63 64 64 63 62 62 61 61 63 63 63 62 63 62 61 61 61 60 62 65 64 61 58
59 59 60 60 62 62 61 61 62 62 63 62 63 65 66 66 66 66 66 67 68 68 67 67 67 66 65 63 63 63 63 62 61 60 60 60 60 61 60 60 60 61 61 63 64 64 64 65 65 64 64 63 62 61 61 59 59 59 58 59 60 60 60
57 58 58 58 60 60 60 60 60 60 60 60 61 63 64 65 65 66 66 67 68 68 67 67 67 65 64 64 64 64 64 63 64 61 58 57 56 55 57 58 58 57 56 56 58 63 63 64 64 63 63 61 60 60 59 57 57 57 56 57 58 58 58
56 57 57 59 59 59 59 60 60 59 60 60 60 61 62 62 63 64 64 65 65 67 67 67 68 65 64 63 63 62 63 61 60 59 57 55 53 52 51 51 54 57 56 57 56 57 63 63 61 62 62 63 61 60 59 59 58 56 52 51 49 52 56
56 57 57 57 58 59 60 60 60 60 60 59 60 60 61 61 62 62 64 64 64 64 66 66 65 63 63 63 62 61 61 60 59 58 58 57 55 54 53 50 46 48 54 55 55 51 49 53 59 60 60 57 56 57 60 59 57 49 42 41 41 41 42
57 57 57 58 59 59 60 61 62 61 60 59 59 59 59 60 60 61 62 62 63 63 63 64 64 64 63 63 62 62 62 60 58 57 56 56 56 56 56 55 53 45 43 47 51 47 44 45 47 50 55 58 54 52 49 49 44 41 41 40 40 40 40
56 56 57 58 59 59 59 60 61 60 60 58 59 58 59 59 59 59 61 61 61 62 62 63 63 63 63 62 62 64 62 59 59 58 57 55 55 56 56 55 54 54 47 43 44 44 42 43 45 46 48 51 54 56 51 45 42 40 39 39 39 38 39